[[{"header":{"parameterUnit":"m.s-1","parameterCategory":1,"la1":30.2991,"la2":30.254,"lo1":-89.0895,"lo2":-89.0444,"dy":0.0017,"dx":0.0017,"nx":28,"ny":28,"refTime":"2025-11-23T09:00:00:Z","depth":0,"parameterNumber":2,"parameterNumberName":"U-component_of_WINDS"},"data":[0,0,0,0,0,0,0,0,0,0,0,0,0,0,0,0,0,0,0,0,0,0,0,0,0,0,0,0,0,0,0,0,0,0,0,0,0,0,0,0,0,0,0,0,0,0,0,0,0,0,0,0,0,0,0,0,0,0,0.0386,0.0384,0,0.0252,0.025,0.0249,0.013,0.0129,0.0127,0.0126,-0.0013,-0.0015,-0.0017,0,0,0,0,0,0,0,0,0,0,0,0,0,0.0535,0.0533,0.0386,0.0384,0.0382,0.0252,0.025,0.0248,0.013,0.0129,0.0127,0.0126,-0.0012,-0.0015,-0.0017,0,0,0,0,0,0,0,0,0,0,0,0,0,0.0443,0.0533,0.0386,0.0308,0.03,0.0253,0.025,0.0248,0.0131,0.0129,0.0127,0.0125,-0.0011,-0.0014,-0.0018,0.0001,0,0,-0.0029,-0.003,0,0,0,0,0,0,0,0,0.0448,0.0438,0.0321,0.0313,0.0304,0.0206,0.0252,0.0165,0.0131,0.0195,0.0126,0.0124,0.0062,0.0052,0.0031,-0.0005,-0.0011,-0.0029,-0.0031,-0.0033,-0.0034,0,0,0,0,0,0,0,0.0455,0.0443,0.0333,0.0319,0.0309,0.0278,0.0263,0.0235,0.0141,0.0189,0.018,0.0166,0.0056,0.0035,0.0027,-0.0013,-0.0029,-0.0032,-0.0035,-0.0036,-0.0044,-0.0042,0,0,0,0,0,0,0.0474,0.0449,0.0337,0.0329,0.0373,0.0277,0.026,0.0239,0.0141,0.0125,0.0168,0.0161,0.0042,0.0032,0.0022,0.0036,-0.0033,-0.0036,-0.0038,-0.0046,-0.0044,-0.0041,0,0,0,0,0,0,0.0478,0.0465,0.0342,0.0386,0.0368,0.0277,0.0255,0.0238,0.0216,0.0125,0.0108,0.0164,0.004,0.0027,0.0007,0.003,-0.0038,-0.0041,-0.0048,-0.0045,-0.0043,0.0066,0,0,0,0,0,0,0.0482,0.0467,0.0474,0.0387,0.0367,0.0331,0.0256,0.0237,0.021,0.02,0.0117,0.0101,0.0038,0.0013,0.0003,0.0024,-0.0044,-0.0051,-0.0047,-0.0043,0.006,0.0073,0.0083,0,0,0,0,0,0.0488,0.051,0.0475,0.0463,0.0374,0.0333,0.032,0.0248,0.0213,0.0219,0.016,0.0103,0.0029,0.0012,-0.0,0.002,-0.0053,-0.0048,-0.0044,0.0055,0.007,0.0083,0,0,0,0,0,0,0.0602,0.0498,0.0458,0.0453,0.0403,0.0313,0.0318,0.0266,0.0225,0.0217,0.0127,0.011,0.0099,0.0057,0.004,0.0031,-0.002,-0.0017,0.006,0.0073,0.0084,0.0095,-0.0047,0,0,0,0,0,0.0627,0.0603,0.0513,0.0517,0.0494,0.0411,0.039,0.0338,0.0282,0.026,0.02,0.0147,0.0111,0.009,0.0052,0.0053,0.0032,0.0061,0.0072,0.0082,0.0085,0.008,0.0091,-0.0027,-0.0027,-0.0027,0,0,0.0678,0.0617,0.0608,0.0538,0.0493,0.0469,0.0394,0.0372,0.0353,0.0256,0.0234,0.0188,0.0122,0.0113,0.0105,0.0077,0.0113,0.0088,0.0096,0.0094,0.0086,0.0097,0.0107,-0.0024,-0.0025,-0.0025,0,0,0.0758,0.071,0.0708,0.0664,0.0597,0.0541,0.0541,0.0458,0.0424,0.04,0.0326,0.0301,0.0243,0.0198,0.0168,0.023,0.0175,0.022,0.028,0.0276,0.0285,0.0293,0.0314,0.0322,0.0223,0.0223,0.0223,0,0.0829,0.0791,0.0713,0.0695,0.0666,0.0578,0.0574,0.0535,0.0459,0.044,0.041,0.0332,0.0282,0.026,0.0275,0.0254,0.0249,0.0229,0.0291,0.0298,0.0304,0.0322,0.033,0.0229,0.0228,0.0228,0.0227,0,0.0881,0.0856,0.0862,0.0791,0.0762,0.0751,0.0671,0.0651,0.0601,0.0548,0.0523,0.0459,0.0406,0.0397,0.0349,0.0367,0.0352,0.0308,0.0254,0.0322,0.0338,0.0344,0.0237,0.0235,0.0233,0.0232,0,0,0.103,0.0915,0.0919,0.0885,0.0803,0.0781,0.0766,0.0714,0.0698,0.0648,0.0631,0.0582,0.054,0.0506,0.0451,0.0448,0.0499,0.0403,0.04,0.0423,0.0513,0.0547,0.0557,0.0462,0.0463,0.0464,0.0519,0,0.1096,0.1065,0.0993,0.0983,0.0958,0.0873,0.0858,0.0806,0.0756,0.0725,0.0669,0.0635,0.0583,0.0561,0.0555,0.0495,0.0516,0.0489,0.0445,0.0444,0.0464,0.0565,0.0601,0.0656,0.0524,0.0525,0.0526,0,0.1169,0.1125,0.1113,0.1031,0.1017,0.1007,0.0952,0.0925,0.0863,0.0826,0.0788,0.0727,0.0704,0.0655,0.0621,0.0604,0.0581,0.0549,0.0549,0.0542,0.0489,0.056,0.0672,0.068,0.0535,0.0535,0.0534,0,0.1278,0.1215,0.1199,0.1172,0.1077,0.1071,0.1031,0.0967,0.094,0.0892,0.0873,0.0823,0.0796,0.0758,0.0684,0.0656,0.0657,0.0603,0.0625,0.0627,0.0629,0.063,0.0738,0.0616,0.0616,0.0615,0.0615,0,0.1359,0.1355,0.1246,0.1237,0.1228,0.1145,0.1139,0.109,0.1034,0.1012,0.0934,0.0915,0.0819,0.0788,0.073,0.071,0.0698,0.0666,0.0651,0.0673,0.0677,0.0657,0.0651,0.0618,0.0617,0.0617,0.0616,0,0.148,0.1407,0.1384,0.1295,0.1273,0.127,0.1194,0.118,0.1124,0.1097,0.1086,0.0998,0.0957,0.088,0.0817,0.0778,0.0769,0.0743,0.0791,0.0781,0.0807,0.0806,0.0906,0.0914,0.0788,0.0789,0.079,0,0.1536,0.153,0.1441,0.1421,0.1384,0.1353,0.1325,0.1242,0.1216,0.1144,0.1138,0.1091,0.105,0.0988,0.0917,0.0868,0.0839,0.0878,0.0832,0.0853,0.0838,0.084,0.0838,0.0889,0.089,0.0892,0.0893,0,0.1643,0.1607,0.157,0.1521,0.1489,0.1446,0.1398,0.1386,0.1292,0.1266,0.1223,0.1191,0.1126,0.108,0.102,0.0976,0.0919,0.0908,0.091,0.0932,0.096,0.0944,0.0819,0.0906,0.0905,0.0904,0.0903,0.0903,0.1732,0.1723,0.1658,0.1619,0.1575,0.1532,0.1514,0.1456,0.1419,0.1361,0.1314,0.1275,0.121,0.1124,0.1084,0.1051,0.1023,0.1027,0.1028,0.103,0.1038,0.0966,0.104,0.1039,0.1039,0.1038,0.1038,0,0.1834,0.1788,0.1753,0.1689,0.1658,0.1607,0.1551,0.1528,0.1495,0.144,0.14,0.135,0.1304,0.123,0.1178,0.1165,0.1137,0.1154,0.1154,0.1144,0.1066,0.1069,0.1178,0.1177,0.1177,0.1177,0.1177,0.1177,0.1884,0.1865,0.1821,0.1778,0.1731,0.1694,0.1666,0.1625,0.158,0.1529,0.149,0.1442,0.1379,0.1321,0.1275,0.1254,0.1238,0.1264,0.1234,0.1163,0.115,0.1138,0.114,0.1261,0.1261,0.1314,0.1315,0.1315]},{"header":{"parameterUnit":"m.s-1","parameterCategory":1,"la1":30.2991,"la2":30.254,"lo1":-89.0895,"lo2":-89.0444,"dy":0.0017,"dx":0.0017,"nx":28,"ny":28,"refTime":"2025-11-23T09:00:00:Z","depth":0,"parameterNumber":3,"parameterNumberName":"V-component_of_WINDS"},"data":[0,0,0,0,0,0,0,0,0,0,0,0,0,0,0,0,0,0,0,0,0,0,0,0,0,0,0,0,0,0,0,0,0,0,0,0,0,0,0,0,0,0,0,0,0,0,0,0,0,0,0,0,0,0,0,0,0,0,4.2632,4.2635,0,4.2884,4.2887,4.289,4.2992,4.2992,4.2991,4.2991,4.3241,4.3248,4.3255,0,0,0,0,0,0,0,0,0,0,0,0,0,4.2234,4.2241,4.2632,4.2635,4.2638,4.2883,4.2887,4.289,4.2992,4.2992,4.2991,4.299,4.3238,4.3247,4.3256,0,0,0,0,0,0,0,0,0,0,0,0,0,4.2438,4.2243,4.2631,4.2719,4.2729,4.2883,4.2887,4.2891,4.2992,4.2992,4.2991,4.299,4.3236,4.3246,4.3257,4.334,0,0,4.329,4.3294,0,0,0,0,0,0,0,0,4.2426,4.2452,4.2703,4.2713,4.2725,4.2906,4.2838,4.3041,4.2993,4.2892,4.2991,4.299,4.313,4.3149,4.3198,4.3351,4.3362,4.3291,4.3297,4.3302,4.3305,0,0,0,0,0,0,0,4.2412,4.2442,4.2731,4.2706,4.272,4.2744,4.2772,4.2877,4.3012,4.2901,4.2909,4.2938,4.3135,4.3187,4.3204,4.3366,4.329,4.33,4.3306,4.3311,4.3601,4.3602,0,0,0,0,0,0,4.2384,4.243,4.2723,4.2739,4.2571,4.2752,4.2783,4.2848,4.3011,4.3036,4.2938,4.2942,4.3169,4.3192,4.3214,4.3323,4.3302,4.3312,4.3318,4.36,4.3601,4.3602,0,0,0,0,0,0,4.2375,4.241,4.2713,4.2587,4.2627,4.2759,4.2832,4.2854,4.2906,4.304,4.3064,4.2967,4.3169,4.3198,4.3308,4.3333,4.3317,4.3326,4.3598,4.36,4.3602,4.3541,0,0,0,0,0,0,4.2363,4.2406,4.244,4.2587,4.2634,4.2806,4.2834,4.2859,4.2925,4.2932,4.3073,4.3095,4.3171,4.3292,4.3319,4.3347,4.3335,4.3596,4.3599,4.3601,4.3541,4.354,4.3539,0,0,0,0,0,4.2349,4.2411,4.2441,4.2476,4.2679,4.2807,4.2833,4.2922,4.2927,4.2962,4.3048,4.3091,4.3325,4.3302,4.3334,4.3366,4.3595,4.3598,4.3601,4.3541,4.354,4.3539,0,0,0,0,0,0,4.2261,4.2431,4.2467,4.2579,4.2678,4.2824,4.2871,4.2917,4.3015,4.3017,4.312,4.3151,4.3252,4.332,4.3291,4.3455,4.3464,4.3473,4.3407,4.3408,4.3407,4.3389,4.3344,0,0,0,0,0,4.2254,4.2346,4.2489,4.2573,4.2622,4.2737,4.2796,4.2856,4.2961,4.3003,4.3097,4.3196,4.3292,4.3353,4.3449,4.3551,4.3583,4.3588,4.3587,4.3586,4.3593,4.3653,4.3657,4.3612,4.3612,4.3612,0,0,4.2242,4.2347,4.2397,4.2558,4.2642,4.2733,4.2772,4.2865,4.2934,4.3016,4.3128,4.3199,4.3316,4.3423,4.3475,4.3482,4.3613,4.359,4.3588,4.3596,4.3656,4.366,4.3664,4.3614,4.3613,4.3613,0,0,4.2266,4.2354,4.2436,4.2519,4.2647,4.2723,4.2742,4.2882,4.2935,4.3048,4.3112,4.3193,4.3356,4.3438,4.3501,4.3556,4.36,4.3584,4.358,4.3637,4.3641,4.3644,4.3665,4.3671,4.359,4.359,4.359,0,4.2234,4.2376,4.247,4.2562,4.2631,4.2713,4.2795,4.2871,4.3021,4.3066,4.3073,4.3282,4.3366,4.3494,4.3507,4.3555,4.358,4.3569,4.3633,4.3638,4.3642,4.3664,4.3671,4.3588,4.3588,4.3588,4.3589,0,4.2331,4.2427,4.2477,4.2624,4.2698,4.2784,4.2891,4.2954,4.3007,4.3082,4.3196,4.3301,4.342,4.3454,4.3505,4.3589,4.359,4.3613,4.3625,4.3643,4.3664,4.3673,4.3584,4.3585,4.3586,4.3586,0,0,4.2307,4.2506,4.2523,4.2591,4.2738,4.2814,4.2903,4.3022,4.3075,4.3176,4.3253,4.339,4.3414,4.3484,4.3545,4.3595,4.3634,4.3613,4.3617,4.3614,4.3733,4.3716,4.3724,4.3663,4.3665,4.3667,4.3724,0,4.2352,4.2519,4.2607,4.2735,4.2826,4.2905,4.2982,4.308,4.3152,4.3238,4.3317,4.3414,4.3437,4.348,4.3533,4.3618,4.3659,4.3615,4.3735,4.3738,4.3705,4.3735,4.3717,4.3766,4.3733,4.3734,4.3735,0,4.2427,4.253,4.2668,4.2806,4.2847,4.2916,4.3033,4.3115,4.3226,4.3275,4.3355,4.3416,4.3511,4.3514,4.3647,4.3615,4.3669,4.3718,4.3722,4.3737,4.3739,4.3752,4.3783,4.3791,4.3749,4.3748,4.3747,0,4.2398,4.257,4.2676,4.2732,4.2894,4.2941,4.301,4.3122,4.3188,4.3289,4.3333,4.3442,4.3503,4.3585,4.3673,4.3667,4.3797,4.3807,4.384,4.3838,4.3865,4.3862,4.3906,4.3897,4.3897,4.3896,4.3896,0,4.244,4.2521,4.2666,4.273,4.2824,4.2923,4.3013,4.3088,4.3186,4.3266,4.3339,4.3412,4.3523,4.3609,4.3678,4.3778,4.3804,4.3845,4.3863,4.384,4.3835,4.3878,4.3877,4.3899,4.3898,4.3898,4.3897,0,4.2423,4.2523,4.2644,4.2788,4.2827,4.2889,4.3013,4.3078,4.3154,4.3254,4.3283,4.3402,4.3508,4.3604,4.3742,4.3789,4.389,4.3911,4.3854,4.3864,4.3891,4.3888,4.3966,4.3981,4.3959,4.3959,4.3959,0,4.2444,4.251,4.2662,4.2722,4.2791,4.2886,4.2955,4.3055,4.3123,4.3256,4.3305,4.3416,4.3511,4.3675,4.3773,4.3879,4.3904,4.3924,4.3921,4.3896,4.3906,4.3902,4.3909,4.3923,4.3923,4.3923,4.3923,0,4.2471,4.2518,4.2616,4.2731,4.2812,4.2907,4.3004,4.3048,4.3166,4.3239,4.3349,4.3423,4.3566,4.3676,4.3793,4.3863,4.3912,4.3923,4.3937,4.3914,4.3879,4.39,4.3852,4.3921,4.3921,4.3921,4.3921,4.3921,4.2476,4.2538,4.2656,4.2762,4.2846,4.2935,4.3005,4.3091,4.3185,4.3312,4.3364,4.3476,4.3586,4.375,4.3819,4.3906,4.3916,4.3935,4.394,4.3944,4.394,4.3864,4.3928,4.3928,4.3928,4.3928,4.3928,0,4.2508,4.2588,4.2685,4.282,4.2904,4.2945,4.3055,4.3122,4.322,4.332,4.3412,4.3539,4.3645,4.3752,4.3864,4.3913,4.3939,4.3939,4.3937,4.3953,4.3925,4.3903,4.3917,4.3917,4.3917,4.3917,4.3917,4.3917,4.2535,4.2643,4.2704,4.2853,4.2932,4.3045,4.3104,4.3187,4.3267,4.3406,4.3496,4.3566,4.3668,4.3788,4.3887,4.3915,4.3953,4.3948,4.3982,4.3954,4.3954,4.3954,4.3934,4.3955,4.3955,4.4004,4.4004,4.4004]}]]